TimeHST,TemperatureF,Dew PointF,Humidity,Sea Level PressureIn,VisibilityMPH,Wind Direction,Wind SpeedMPH,Gust SpeedMPH,PrecipitationIn,Events,Conditions,WindDirDegrees,DateUTC
12:54 AM,64.9,62.1,90,30.04,10.0,SSW,4.6,-,N/A,,Clear,210,2012-12-31 10:54:00
1:54 AM,64.9,62.1,90,30.03,10.0,SSW,4.6,-,N/A,,Clear,200,2012-12-31 11:54:00
2:54 AM,64.0,60.1,87,30.01,10.0,Calm,Calm,-,N/A,,Clear,0,2012-12-31 12:54:00
3:54 AM,63.0,59.0,87,30.01,10.0,Calm,Calm,-,N/A,,Clear,0,2012-12-31 13:54:00
4:54 AM,63.0,59.0,87,30.02,10.0,SSE,6.9,-,N/A,,Clear,160,2012-12-31 14:54:00
5:54 AM,62.1,59.0,90,30.03,10.0,Calm,Calm,-,N/A,,Clear,0,2012-12-31 15:54:00
6:54 AM,63.0,61.0,93,30.04,10.0,SSE,5.8,-,N/A,,Clear,150,2012-12-31 16:54:00
7:54 AM,66.0,62.1,87,30.06,10.0,South,3.5,-,N/A,,Clear,170,2012-12-31 17:54:00
8:54 AM,75.0,66.0,73,30.07,10.0,Calm,Calm,-,N/A,,Partly Cloudy,0,2012-12-31 18:54:00
9:54 AM,78.1,66.9,68,30.09,10.0,North,5.8,-,N/A,,Scattered Clouds,360,2012-12-31 19:54:00
10:54 AM,80.1,66.9,64,30.08,10.0,North,6.9,-,N/A,,Scattered Clouds,360,2012-12-31 20:54:00
11:54 AM,81.0,66.0,60,30.06,10.0,North,9.2,-,N/A,,Scattered Clouds,360,2012-12-31 21:54:00
12:54 PM,80.1,69.1,69,30.03,10.0,North,10.4,-,N/A,,Partly Cloudy,350,2012-12-31 22:54:00
1:54 PM,80.1,70.0,71,30.00,10.0,NW,10.4,-,N/A,,Partly Cloudy,310,2012-12-31 23:54:00
2:54 PM,81.0,66.0,60,30.00,10.0,North,9.2,-,N/A,,Scattered Clouds,360,2013-01-01 00:54:00
3:54 PM,81.0,66.0,60,30.01,10.0,NNE,9.2,-,N/A,,Scattered Clouds,20,2013-01-01 01:54:00
4:54 PM,79.0,66.9,66,30.03,10.0,North,8.1,-,N/A,,Scattered Clouds,360,2013-01-01 02:54:00
5:54 PM,77.0,68.0,74,30.05,10.0,NNW,6.9,-,N/A,,Scattered Clouds,340,2013-01-01 03:54:00
6:54 PM,75.9,66.0,71,30.06,10.0,North,4.6,-,N/A,,Scattered Clouds,350,2013-01-01 04:54:00
7:54 PM,73.9,68.0,82,30.08,10.0,North,3.5,-,N/A,,Clear,10,2013-01-01 05:54:00
8:54 PM,73.0,68.0,84,30.09,7.0,Calm,Calm,-,N/A,,Clear,0,2013-01-01 06:54:00
9:54 PM,73.9,69.1,85,30.10,10.0,NNW,8.1,-,N/A,,Clear,340,2013-01-01 07:54:00
10:54 PM,73.9,66.9,79,30.11,10.0,NNE,12.7,-,N/A,,Clear,20,2013-01-01 08:54:00
11:54 PM,73.0,66.9,81,30.10,7.0,NNE,6.9,-,N/A,,Clear,30,2013-01-01 09:54:00